Home   Weather   Bratislava   Past weeks

Flag for Slovakia Past Weather in Bratislava, Slovakia — Yesterday and Last 2 Weeks

57 °F

Partly sunny.

Feels Like: 55 °F
Forecast: 42 / 55 °F
Wind: 10 mph from Northwest

Location: Bratislava Ivanka

Current Time: Oct 25, 2016 at 1:59:55 PM

Latest Report: Oct 25, 2016 at 1:00 PM

Visibility: 6 mi

Pressure: 30.18 "Hg

Humidity: 88%

Dew Point: 54 °F

Location of BratislavaLocation

Past Weather in Bratislava — Graph


Bratislava Temperature Yesterday

Maximum temperature yesterday: 63 °F (at 3:00 PM)
Minimum temperature yesterday: 46 °F (at 12:00 AM)
Average temperature yesterday: 53 °F

High & Low Weather Summary for the Past Weeks

High66 °F (Oct 16, 1:30 PM)100% (Oct 11, 5:00 AM)30.36 "Hg (Oct 11, 5:00 AM)
Low37 °F (Oct 23, 12:00 AM)51% (Oct 22, 12:00 PM)29.86 "Hg (Oct 12, 5:00 AM)
Average49 °F85%30.08 "Hg
* Reported Oct 10 12:00 PM — Oct 25 12:30 PM, Bratislava, Weather by CustomWeather, © 2016

Note: Actual official high and low records may vary slightly from our data, if they occured in-between our weather recording intervals... More about our weather records


Bratislava Weather History for the Previous 24 Hours

Scroll right to see more
Time TempWeatherWind HumidityBarometerVisibility
12:30 PM
Tue, Oct 25
57 °FBroken clouds.10 mph88%30.18 "Hg5 mi
12:00 PM57 °FPartly sunny.8 mph88%30.18 "Hg6 mi
11:30 AM57 °FBroken clouds.6 mph94%30.15 "Hg5 mi
11:00 AM55 °FOvercast.7 mph94%30.15 "Hg4 mi
10:30 AM55 °FDrizzle. Fog.7 mph94%30.12 "Hg3 mi
10:00 AM55 °FMostly cloudy.8 mph94%30.12 "Hg4 mi
9:30 AM55 °FMore clouds than sun.7 mph94%30.09 "Hg6 mi
9:00 AM55 °FPartly sunny.7 mph94%30.09 "Hg6 mi
8:30 AM55 °FMostly cloudy.6 mph94%30.07 "Hg6 mi
8:00 AM55 °FLow clouds.7 mph88%30.07 "Hg6 mi
7:30 AM55 °FMore clouds than sun.5 mph88%30.07 "Hg6 mi
7:00 AM55 °FLow clouds.8 mph88%30.07 "Hg6 mi
6:30 AM54 °FPassing clouds.10 mph94%30.04 "Hg6 mi
6:00 AM54 °FPassing clouds.10 mph94%30.04 "Hg5 mi
5:30 AM54 °FPassing clouds.10 mph94%30.04 "Hg4 mi
5:00 AM54 °FOvercast.10 mph94%30.07 "Hg5 mi
4:30 AM54 °FPassing clouds.10 mph94%30.07 "Hg5 mi
4:00 AM54 °FPassing clouds.9 mph94%30.07 "Hg5 mi
3:30 AM54 °FPassing clouds.9 mph94%30.07 "Hg4 mi
3:00 AM54 °FPassing clouds.8 mph94%30.07 "Hg4 mi
2:30 AM54 °FPassing clouds.9 mph94%30.07 "Hg4 mi
2:00 AM54 °FPassing clouds.9 mph94%30.07 "Hg4 mi
1:30 AM54 °FPassing clouds.8 mph94%30.07 "Hg4 mi
1:00 AM55 °FPassing clouds.8 mph88%30.07 "Hg5 mi
12:30 AM55 °FPassing clouds.8 mph88%30.09 "Hg5 mi
12:00 AM55 °FPassing clouds.8 mph88%30.07 "Hg5 mi
11:30 PM
Mon, Oct 24
55 °FPassing clouds.8 mph88%30.09 "Hg5 mi
11:00 PM55 °FPassing clouds.8 mph88%30.09 "Hg5 mi
10:30 PM55 °FPassing clouds.8 mph88%30.09 "Hg5 mi
10:00 PM55 °FPassing clouds.9 mph88%30.09 "Hg6 mi
9:30 PM55 °FPassing clouds.9 mph88%30.09 "HgN/A
9:00 PM55 °FPassing clouds.10 mph88%30.09 "HgN/A
8:30 PM55 °FPassing clouds.7 mph88%30.09 "HgN/A
8:00 PM55 °FPassing clouds.10 mph88%30.09 "HgN/A
7:30 PM55 °FPassing clouds.10 mph88%30.09 "HgN/A
7:00 PM57 °FPassing clouds.14 mph82%30.09 "HgN/A
6:30 PM59 °FPassing clouds.9 mph82%30.09 "HgN/A
6:00 PM61 °FPassing clouds.9 mph77%30.07 "HgN/A
5:30 PM61 °FPartly sunny.12 mph77%30.07 "HgN/A
5:00 PM61 °FScattered clouds.10 mph77%30.07 "HgN/A
4:30 PM63 °FScattered clouds.10 mph73%30.07 "HgN/A
4:00 PM63 °FPartly sunny.12 mph73%30.07 "HgN/A
3:30 PM63 °FScattered clouds.12 mph73%30.09 "HgN/A
3:00 PM63 °FPartly sunny.10 mph68%30.07 "HgN/A
2:30 PM59 °FPartly sunny.8 mph77%30.09 "HgN/A
2:00 PM57 °FPartly sunny.8 mph77%30.09 "HgN/A
1:30 PM55 °FPartly sunny.8 mph82%30.09 "HgN/A
1:00 PM54 °FPartly sunny.6 mph82%30.12 "HgN/A
Weather by CustomWeather, © 2016

See weather overviewHow to use our weather pages